EDT,Max TemperatureF,Mean TemperatureF,Min TemperatureF,Max Dew PointF,MeanDew PointF,Min DewpointF,Max Humidity, Mean Humidity, Min Humidity, Max Sea Level PressureIn, Mean Sea Level PressureIn, Min Sea Level PressureIn, Max VisibilityMiles, Mean VisibilityMiles, Min VisibilityMiles, Max Wind SpeedMPH, Mean Wind SpeedMPH, Max Gust SpeedMPH,PrecipitationIn, CloudCover, Events, WindDirDegrees
2013-7-1,80,75,70,75,72,69,93,86,79,30.01,29.93,29.86,10,9,3,13,5,20,0.90,6,Rain-Thunderstorm,152
2013-7-2,86,80,73,73,72,69,94,80,65,30.17,30.08,30.00,10,9,1,17,8,25,0.23,6,Rain,178
2013-7-3,85,80,74,75,71,69,94,80,65,30.25,30.20,30.17,10,10,10,12,6,15,0.04,5,Rain,197
2013-7-4,90,82,74,73,72,71,94,75,56,30.26,30.22,30.16,10,10,8,16,7,22,0.00,4,,195
2013-7-5,91,83,74,74,73,71,88,72,56,30.22,30.18,30.11,10,10,10,16,7,21,0.00,2,,204
2013-7-6,93,83,73,73,72,70,93,71,49,30.18,30.12,30.05,10,10,10,12,5,14,0.00,1,,236
2013-7-7,92,82,71,74,70,66,87,70,52,30.09,30.04,29.97,10,10,10,28,5,35,T,1,Rain-Thunderstorm,243
2013-7-8,87,78,69,70,67,63,90,69,48,30.09,30.06,30.02,10,10,8,23,4,32,0.00,2,,264
2013-7-9,86,78,69,73,69,66,97,79,61,30.10,30.06,30.01,10,6,2,22,3,32,0.24,3,Rain,242
2013-7-10,87,79,71,73,71,69,93,76,59,29.99,29.93,29.84,10,7,1,15,5,26,0.10,4,Rain,235
2013-7-11,86,79,71,71,66,60,87,67,47,29.94,29.89,29.82,10,10,10,10,5,17,T,2,,314
2013-7-12,76,73,69,71,66,60,100,82,64,30.06,30.02,29.94,10,8,3,13,5,17,0.99,6,Rain,33
2013-7-13,85,78,70,73,70,68,97,79,61,30.30,30.17,30.04,10,8,2,13,5,20,0.05,7,Rain,116
2013-7-14,91,82,72,73,72,69,94,72,49,30.36,30.31,30.27,10,9,3,12,4,15,0.00,3,,226
2013-7-15,95,84,72,75,72,69,93,70,46,30.30,30.24,30.18,10,10,8,14,3,18,T,1,Rain,286
2013-7-16,95,85,74,75,70,64,94,67,39,30.26,30.21,30.17,15,10,5,13,5,20,0.00,1,,337
2013-7-17,94,83,71,72,69,66,90,66,41,30.23,30.17,30.09,10,10,6,9,2,14,0.00,0,,272
2013-7-18,96,86,76,76,73,70,94,68,42,30.10,30.06,29.99,10,10,10,10,4,14,0.00,0,,275
2013-7-19,96,85,74,76,73,69,94,73,52,30.01,29.91,29.83,10,9,2,26,4,36,0.26,1,Rain-Thunderstorm,225
2013-7-20,92,82,72,73,71,68,94,73,52,29.87,29.83,29.78,10,9,2,17,6,23,0.00,1,,251
2013-7-21,87,80,73,70,69,66,79,65,51,29.95,29.92,29.86,10,10,10,8,2,12,0.00,1,,73
2013-7-22,85,77,69,75,72,69,100,83,65,29.94,29.87,29.79,10,7,1,18,3,23,2.19,5,Rain-Thunderstorm,82
2013-7-23,87,79,70,72,70,67,93,76,59,29.79,29.69,29.62,10,6,1,22,5,28,0.12,6,Rain-Thunderstorm,272
2013-7-24,80,71,62,67,61,51,90,68,45,29.98,29.80,29.67,10,10,9,17,8,22,0.00,3,,334
2013-7-25,74,65,56,59,55,50,77,67,57,30.06,30.02,29.97,10,10,10,13,5,16,0.00,4,,29
2013-7-26,82,72,62,61,58,55,93,68,42,30.09,30.05,30.02,10,10,10,12,4,18,0.00,2,,289
2013-7-27,84,73,61,69,64,59,97,78,58,30.06,30.00,29.92,10,10,4,16,5,23,0.09,3,Rain,166
2013-7-28,85,77,69,71,67,64,97,76,55,29.98,29.93,29.90,10,9,2,13,4,17,0.18,5,Rain,170
2013-7-29,81,72,62,70,61,53,93,66,39,30.14,30.04,29.98,10,10,7,15,5,20,0.03,3,Rain,306
2013-7-30,81,70,59,60,57,54,87,66,45,30.22,30.18,30.15,10,10,10,14,4,16,0.00,1,,292
2013-7-31,82,71,59,65,61,58,90,71,51,30.18,30.12,30.03,10,10,10,12,3,16,0.00,2,,190